Pella, IA

11:20 PM CDT on May 25, 2017 (GMT -0500)
Pella Municipal

Weather History for KPEA - September, 2014

Change the Weather History Date:

Wednesday, September 3, 2014

  Actual Average (KOXV) Record (KOXV)
Temperature  
Mean Temperature 72 °F -  
Max Temperature 84 °F 82 °F 95 °F (1983)
Min Temperature 59 °F 61 °F 38 °F (1974)
Cooling Degree Days 6    
Growing Degree Days 22 (Base 50)    
Moisture  
Dew Point 66 °F    
Average Humidity 81    
Maximum Humidity 98    
Minimum Humidity 61    
Precipitation  
Precipitation 0.00 in - - ()
Sea Level Pressure  
Sea Level Pressure 29.91 in    
Wind  
Wind Speed 6 mph (SSE)    
Max Wind Speed 14 mph    
Max Gust Speed 20 mph    
Visibility 10 miles    
Events Rain    
Averages and records for this station are not official NWS values.
T = Trace of Precipitation, MM = Missing Value Source: NWS Daily Summary

Daily Weather History Graph

Daily Weather History Graph

Search for Another Location

Airport or City:

Trip Planner

Search our weather history database for the weather conditions in past years. The results will help you decide how hot, cold, wet, or windy it might be!

Date:

Astronomy

Sep. 03, 2014 Rise Set
Actual Time 6:40 AM CDT 7:41 PM CDT
Civil Twilight 6:11 AM CDT 8:09 PM CDT
Nautical Twilight 5:37 AM CDT 8:43 PM CDT
Astronomical Twilight 5:02 AM CDT 9:18 PM CDT
Moon 3:26 PM CDT (9/3) 12:32 AM CDT (9/3)
Length of Visible Light 13h 57m
Length of Day
13h 01m
Waxing Gibbous, 64% of the Moon is Illuminated
Sep 3
Waxing Gibbous
Sep 8
Full
Sep 15
Last Quarter
Sep 24
New
Oct 1
First Quarter

Hourly Weather History & Observations

Time (CDT) Temp. Heat Index Dew Point Humidity Pressure Visibility Wind Dir Wind Speed Gust Speed Precip Events Conditions
12:15 AM 62.1 °F - 61.0 °F 96% 29.99 in 10.0 mi Calm Calm - N/A   Clear
12:35 AM 61.9 °F - 60.8 °F 96% 29.99 in 10.0 mi Calm Calm - N/A   Clear
12:55 AM 60.6 °F - 59.5 °F 96% 29.99 in 10.0 mi Calm Calm - N/A   Clear
1:15 AM 61.2 °F - 60.4 °F 97% 29.98 in 10.0 mi Calm Calm - N/A   Clear
1:35 AM 60.6 °F - 59.9 °F 97% 29.98 in 10.0 mi SE 4.6 mph - N/A   Clear
1:55 AM 59.9 °F - 59.2 °F 97% 29.98 in 10.0 mi SE 3.5 mph - N/A   Clear
2:15 AM 59.9 °F - 59.2 °F 97% 29.98 in 10.0 mi SE 3.5 mph - N/A   Clear
2:35 AM 59.9 °F - 59.4 °F 98% 29.98 in 10.0 mi SE 4.6 mph - N/A   Clear
2:55 AM 60.1 °F - 59.4 °F 97% 29.98 in 10.0 mi SE 4.6 mph - N/A   Clear
3:15 AM 60.3 °F - 59.5 °F 97% 29.98 in 10.0 mi SSE 4.6 mph - N/A   Clear
3:35 AM 61.2 °F - 60.3 °F 97% 29.98 in 10.0 mi SSE 4.6 mph - N/A   Clear
3:55 AM 61.3 °F - 60.1 °F 96% 29.98 in 10.0 mi SSE 3.5 mph - N/A   Clear
4:15 AM 60.6 °F - 59.4 °F 96% 29.98 in 10.0 mi SSE 3.5 mph - N/A   Clear
4:35 AM 60.3 °F - 59.2 °F 96% 29.97 in 10.0 mi SE 5.8 mph - N/A   Clear
4:55 AM 60.6 °F - 59.4 °F 96% 29.96 in 10.0 mi SE 4.6 mph - N/A   Clear
5:15 AM 60.1 °F - 59.0 °F 96% 29.96 in 10.0 mi SE 3.5 mph - N/A   Clear
5:35 AM 59.9 °F - 58.5 °F 95% 29.96 in 10.0 mi SSE 4.6 mph - N/A   Clear
5:55 AM 60.6 °F - 59.2 °F 95% 29.96 in 10.0 mi SSE 4.6 mph - N/A   Clear
6:15 AM 61.7 °F - 60.1 °F 94% 29.97 in 10.0 mi South 6.9 mph - N/A   Clear
6:35 AM 62.4 °F - 60.8 °F 94% 29.97 in 10.0 mi South 5.8 mph - N/A   Clear
6:55 AM 62.1 °F - 60.6 °F 95% 29.96 in 10.0 mi SSE 3.5 mph - N/A   Clear
7:15 AM 62.6 °F - 61.0 °F 94% 29.97 in 10.0 mi SSE 3.5 mph - N/A   Clear
7:35 AM 63.5 °F - 61.9 °F 94% 29.97 in 10.0 mi SSE 3.5 mph - N/A   Clear
7:55 AM 66.2 °F - 64.4 °F 94% 29.98 in 10.0 mi SSE 3.5 mph - N/A   Clear
8:15 AM 67.8 °F - 65.5 °F 92% 29.98 in 10.0 mi SSE 4.6 mph - N/A   Clear
8:35 AM 69.6 °F - 66.4 °F 89% 29.97 in 10.0 mi South 6.9 mph - N/A   Clear
8:55 AM 70.7 °F - 66.6 °F 87% 29.98 in 10.0 mi South 9.2 mph - N/A   Clear
9:15 AM 73.0 °F - 68.2 °F 85% 29.98 in 10.0 mi South 6.9 mph - N/A   Clear
9:35 AM 74.8 °F - 68.9 °F 82% 29.97 in 10.0 mi South 10.4 mph - N/A   Clear
9:55 AM 76.3 °F - 69.6 °F 80% 29.96 in 10.0 mi South 11.5 mph - N/A   Clear
10:15 AM 77.5 °F - 69.8 °F 77% 29.96 in 10.0 mi South 8.1 mph - N/A   Clear
10:35 AM 78.4 °F - 70.0 °F 75% 29.94 in 10.0 mi South 8.1 mph - N/A   Clear
10:55 AM 79.0 °F - 69.4 °F 72% 29.94 in 10.0 mi South 12.7 mph 16.1 mph N/A   Clear
11:15 AM 79.9 °F - 70.2 °F 72% 29.93 in 10.0 mi South 10.4 mph - N/A   Clear
11:35 AM 80.8 °F 84.2 °F 70.3 °F 70% 29.93 in 10.0 mi South 10.4 mph 18.4 mph N/A   Scattered Clouds
11:55 AM 80.6 °F 84.2 °F 70.9 °F 72% 29.93 in 10.0 mi South 11.5 mph - N/A   Scattered Clouds
12:15 PM 82.2 °F 86.4 °F 70.5 °F 68% 29.93 in 10.0 mi SSW 12.7 mph 18.4 mph N/A   Mostly Cloudy
12:35 PM 80.4 °F 83.6 °F 70.0 °F 70% 29.92 in 10.0 mi South 12.7 mph - N/A   Mostly Cloudy
12:55 PM 81.5 °F 85.1 °F 70.2 °F 68% 29.91 in 10.0 mi South 11.5 mph 19.6 mph N/A   Mostly Cloudy
1:15 PM 82.2 °F 86.4 °F 70.7 °F 68% 29.91 in 10.0 mi SSW 13.8 mph 17.3 mph N/A   Scattered Clouds
1:35 PM 82.6 °F 87.1 °F 70.9 °F 68% 29.90 in 10.0 mi South 9.2 mph - N/A   Scattered Clouds
1:55 PM 83.5 °F 88.0 °F 70.7 °F 65% 29.89 in 10.0 mi South 9.2 mph - N/A   Clear
2:15 PM 83.7 °F 88.0 °F 70.2 °F 64% 29.89 in 10.0 mi South 13.8 mph - N/A   Clear
2:35 PM 84.0 °F 88.1 °F 69.6 °F 62% 29.87 in 10.0 mi SSE 11.5 mph 18.4 mph N/A   Clear
2:55 PM 83.7 °F 87.2 °F 69.1 °F 61% 29.87 in 10.0 mi South 12.7 mph 17.3 mph N/A   Clear
3:15 PM 82.4 °F 85.6 °F 68.7 °F 63% 29.86 in 10.0 mi South 10.4 mph - N/A   Clear
3:35 PM 82.2 °F 85.1 °F 68.0 °F 62% 29.85 in 10.0 mi South 9.2 mph - N/A   Clear
3:55 PM 81.9 °F 84.4 °F 67.3 °F 61% 29.85 in 10.0 mi South 13.8 mph - N/A   Clear
4:15 PM 82.0 °F 84.9 °F 68.0 °F 62% 29.85 in 10.0 mi South 12.7 mph 16.1 mph N/A   Scattered Clouds
4:35 PM 83.1 °F 87.1 °F 69.6 °F 64% 29.85 in 10.0 mi South 11.5 mph - N/A   Clear
4:55 PM 82.8 °F 86.0 °F 68.4 °F 62% 29.84 in 10.0 mi South 9.2 mph - N/A   Clear
5:15 PM 82.9 °F 86.7 °F 69.4 °F 64% 29.83 in 10.0 mi SSE 11.5 mph 16.1 mph N/A   Clear
5:35 PM 82.8 °F 86.4 °F 69.6 °F 64% 29.83 in 10.0 mi SSE 8.1 mph - N/A   Clear
5:55 PM 82.0 °F 85.3 °F 68.9 °F 64% 29.84 in 10.0 mi South 11.5 mph - N/A   Clear
6:15 PM 81.5 °F 84.8 °F 69.1 °F 66% 29.83 in 10.0 mi SSE 8.1 mph - N/A   Clear
6:55 PM 79.2 °F - 68.9 °F 71% 29.83 in 10.0 mi South 10.4 mph - N/A   Clear
7:15 PM 77.4 °F - 68.9 °F 75% 29.83 in 10.0 mi South 8.1 mph - N/A   Clear
7:35 PM 76.8 °F - 68.2 °F 75% 29.83 in 10.0 mi South 9.2 mph - N/A   Clear
7:55 PM 75.7 °F - 68.2 °F 77% 29.83 in 10.0 mi SSE 9.2 mph - N/A   Clear
8:15 PM 75.2 °F - 68.0 °F 78% 29.83 in 10.0 mi SSE 9.2 mph - N/A   Clear
8:35 PM 74.8 °F - 68.0 °F 79% 29.84 in 10.0 mi SSE 6.9 mph - N/A   Clear
8:55 PM 73.9 °F - 68.0 °F 82% 29.84 in 10.0 mi SSE 6.9 mph - N/A   Clear
9:15 PM 74.3 °F - 68.0 °F 81% 29.84 in 10.0 mi SSE 8.1 mph - N/A   Clear
9:35 PM 74.3 °F - 68.0 °F 81% 29.84 in 10.0 mi SSE 9.2 mph 16.1 mph N/A   Clear
9:55 PM 73.8 °F - 67.8 °F 82% 29.84 in 10.0 mi SSE 10.4 mph - N/A   Clear
10:15 PM 73.4 °F - 68.0 °F 83% 29.84 in 10.0 mi SSE 9.2 mph - N/A   Clear
10:55 PM 73.4 °F - 68.0 °F 83% 29.85 in 10.0 mi SSE 6.9 mph - N/A   Clear
11:15 PM 73.4 °F - 68.0 °F 83% 29.86 in 10.0 mi SSE 4.6 mph - N/A   Clear
11:35 PM 73.4 °F - 68.2 °F 84% 29.86 in 10.0 mi ESE 3.5 mph - N/A Rain Light Rain
11:55 PM 73.0 °F - 68.2 °F 85% 29.86 in 10.0 mi SE 6.9 mph - N/A   Clear